Location: Assche-ter-Heiden
(50.9174°N, 4.1574°E)
Time: 01:47:30
(UTC+00:00)

Cosmos 2278 - Pass Details

Date: 20 January 2020
Orbit: 840 x 852 km, 71.1° (Epoch: 22 February)

Event Time Altitude Azimuth Distance (km) Brightness Sun altitude
Rises 05:59:19 0° 226° (SW) 3,411 6.5 -14.8°
Reaches altitude 10° 06:01:51 10° 232° (SW) 2,479 5.8 -14.4°
Maximum altitude 06:07:22 50° 307° (NW) 1,084 3.9 -13.6°
Drops below altitude 10° 06:12:56 10° 23° (NNE) 2,491 6.2 -12.7°
Sets 06:15:29 0° 29° (NNE) 3,430 7.0 -12.3°
